When you browse on this site, cookies collect data to enhance your experience and personalize the content and advertising you see.
Visit our Privacy Policy to learn more. By continuing to use the site, you agree to this use of cookies and data.
  • în România
  • Lista ţărilor
  • Pe 7 zile
  • Temperatura apei
  • Meteo pe hartă
  • Widget-uri
  • user-avatar
    Intrare

    Meteo pe oră la Bârlad

    Astăzi, 27 Mai, Miercuri

    Timp Temperatura Precipitaţii Vânt Presiune Umiditate
    00:00 +9°C° 0 mm 3 m/s 754 mmHg 91%
    01:00 +9°C° 0 mm 3 m/s 754 mmHg 93%
    02:00 +8°C° 0 mm 3 m/s 754 mmHg 94%
    03:00 +8°C° 0 mm 3 m/s 754 mmHg 94%
    04:00 +8°C° 0 mm 3 m/s 754 mmHg 95%
    05:00 +8°C° 0 mm 3 m/s 754 mmHg 95%
    06:00 +10°C° 0 mm 3 m/s 754 mmHg 90%
    07:00 +11°C° 0 mm 4 m/s 754 mmHg 85%
    08:00 +13°C° 0 mm 4 m/s 754 mmHg 78%
    09:00 +14°C° 0.3 mm 4 m/s 754 mmHg 74%
    10:00 +15°C° 0.3 mm 4 m/s 754 mmHg 70%
    11:00 +17°C° 0.3 mm 4 m/s 754 mmHg 66%
    12:00 +16°C° 0.5 mm 5 m/s 754 mmHg 65%
    13:00 +17°C° 0.5 mm 5 m/s 754 mmHg 64%
    14:00 +17°C° 0.5 mm 5 m/s 753 mmHg 63%
    15:00 +17°C° 0.4 mm 5 m/s 753 mmHg 64%
    16:00 +17°C° 0.4 mm 6 m/s 753 mmHg 65%
    17:00 +17°C° 0.4 mm 6 m/s 752 mmHg 66%
    18:00 +15°C° 0 mm 5 m/s 752 mmHg 72%
    19:00 +14°C° 0 mm 5 m/s 752 mmHg 78%
    20:00 +13°C° 0 mm 4 m/s 753 mmHg 84%
    21:00 +12°C° 0 mm 4 m/s 752 mmHg 85%
    22:00 +11°C° 0 mm 4 m/s 752 mmHg 87%
    23:00 +11°C° 0 mm 4 m/s 752 mmHg 88%

    Mâine, 28 Mai, Joi

    Timp Temperatura Precipitaţii Vânt Presiune Umiditate
    00:00 +11°C° 0 mm 4 m/s 752 mmHg 89%
    01:00 +10°C° 0 mm 4 m/s 752 mmHg 90%
    02:00 +9°C° 0 mm 5 m/s 752 mmHg 90%
    03:00 +9°C° 0 mm 5 m/s 751 mmHg 90%
    04:00 +9°C° 0 mm 5 m/s 751 mmHg 91%
    05:00 +9°C° 0 mm 5 m/s 751 mmHg 91%
    06:00 +10°C° 0 mm 6 m/s 750 mmHg 86%
    07:00 +12°C° 0 mm 7 m/s 750 mmHg 81%
    08:00 +13°C° 0 mm 8 m/s 750 mmHg 75%
    09:00 +15°C° 0.1 mm 7 m/s 750 mmHg 72%
    10:00 +16°C° 0.1 mm 7 m/s 749 mmHg 69%
    11:00 +17°C° 0.1 mm 7 m/s 749 mmHg 66%
    12:00 +17°C° 0.2 mm 7 m/s 748 mmHg 64%
    13:00 +17°C° 0.2 mm 6 m/s 748 mmHg 62%
    14:00 +19°C° 0.2 mm 6 m/s 747 mmHg 60%
    15:00 +17°C° 0.3 mm 6 m/s 747 mmHg 62%
    16:00 +17°C° 0.3 mm 5 m/s 747 mmHg 65%
    17:00 +17°C° 0.3 mm 5 m/s 747 mmHg 67%
    18:00 +17°C° 0.2 mm 4 m/s 747 mmHg 71%
    19:00 +15°C° 0.2 mm 4 m/s 747 mmHg 75%
    20:00 +14°C° 0.2 mm 3 m/s 746 mmHg 79%
    21:00 +14°C° 0 mm 4 m/s 747 mmHg 79%
    22:00 +14°C° 0 mm 4 m/s 747 mmHg 79%
    23:00 +13°C° 0 mm 5 m/s 747 mmHg 79%

    Poimâine, 29 Mai, Vineri

    Timp Temperatura Precipitaţii Vânt Presiune Umiditate
    00:00 +13°C° 0 mm 4 m/s 747 mmHg 78%
    01:00 +13°C° 0 mm 4 m/s 747 mmHg 77%
    02:00 +12°C° 0 mm 4 m/s 747 mmHg 76%
    03:00 +12°C° 0 mm 3 m/s 747 mmHg 77%
    04:00 +12°C° 0 mm 3 m/s 747 mmHg 78%
    05:00 +13°C° 0 mm 2 m/s 747 mmHg 78%
    06:00 +13°C° 0 mm 3 m/s 748 mmHg 73%
    07:00 +16°C° 0 mm 3 m/s 748 mmHg 68%
    08:00 +17°C° 0 mm 4 m/s 748 mmHg 63%
    09:00 +18°C° 0 mm 4 m/s 748 mmHg 59%
    10:00 +20°C° 0 mm 5 m/s 748 mmHg 55%
    11:00 +21°C° 0 mm 5 m/s 748 mmHg 52%
    12:00 +21°C° 0.1 mm 5 m/s 748 mmHg 52%
    13:00 +21°C° 0.1 mm 5 m/s 748 mmHg 52%
    14:00 +21°C° 0.1 mm 5 m/s 747 mmHg 52%
    15:00 +21°C° 0.4 mm 5 m/s 747 mmHg 54%
    16:00 +21°C° 0.4 mm 4 m/s 747 mmHg 56%
    17:00 +20°C° 0.4 mm 3 m/s 747 mmHg 58%
    18:00 +19°C° 0.2 mm 3 m/s 747 mmHg 64%
    19:00 +17°C° 0.2 mm 3 m/s 747 mmHg 71%
    20:00 +15°C° 0.2 mm 4 m/s 747 mmHg 77%
    21:00 +14°C° 0 mm 3 m/s 748 mmHg 80%
    22:00 +14°C° 0 mm 2 m/s 748 mmHg 82%
    23:00 +14°C° 0 mm 1 m/s 748 mmHg 85%

    30 Mai, Sâmbătă

    Timp Temperatura Precipitaţii Vânt Presiune Umiditate
    00:00 +13°C° 0 mm 2 m/s 748 mmHg 85%
    01:00 +13°C° 0 mm 2 m/s 748 mmHg 86%
    02:00 +12°C° 0 mm 2 m/s 747 mmHg 86%
    03:00 +12°C° 0 mm 2 m/s 747 mmHg 85%
    04:00 +10°C° 0 mm 2 m/s 747 mmHg 85%
    05:00 +10°C° 0 mm 2 m/s 747 mmHg 84%
    06:00 +13°C° 0 mm 2 m/s 747 mmHg 78%
    07:00 +13°C° 0 mm 3 m/s 748 mmHg 72%
    08:00 +14°C° 0 mm 3 m/s 748 mmHg 66%
    09:00 +16°C° 0 mm 3 m/s 748 mmHg 64%
    10:00 +17°C° 0 mm 3 m/s 748 mmHg 62%
    11:00 +18°C° 0 mm 2 m/s 748 mmHg 59%
    12:00 +19°C° 0.1 mm 2 m/s 747 mmHg 57%
    13:00 +21°C° 0.1 mm 1 m/s 747 mmHg 54%
    14:00 +22°C° 0.1 mm 1 m/s 747 mmHg 52%
    15:00 +22°C° 0.2 mm 1 m/s 746 mmHg 52%
    16:00 +21°C° 0.2 mm 2 m/s 746 mmHg 52%
    17:00 +21°C° 0.2 mm 2 m/s 746 mmHg 52%
    18:00 +20°C° 0.6 mm 2 m/s 746 mmHg 60%
    19:00 +18°C° 0.6 mm 2 m/s 746 mmHg 68%
    20:00 +16°C° 0.6 mm 2 m/s 747 mmHg 76%
    21:00 +15°C° 0.3 mm 2 m/s 747 mmHg 80%
    22:00 +14°C° 0.3 mm 2 m/s 747 mmHg 83%
    23:00 +13°C° 0.3 mm 2 m/s 747 mmHg 87%

    31 Mai, Duminică

    Timp Temperatura Precipitaţii Vânt Presiune Umiditate
    00:00 +13°C° 0 mm 2 m/s 747 mmHg 88%
    01:00 +12°C° 0 mm 2 m/s 747 mmHg 89%
    02:00 +12°C° 0 mm 2 m/s 747 mmHg 90%
    03:00 +10°C° 0 mm 2 m/s 747 mmHg 90%
    04:00 +10°C° 0 mm 2 m/s 747 mmHg 89%
    05:00 +10°C° 0 mm 2 m/s 747 mmHg 88%
    06:00 +13°C° 0 mm 1 m/s 747 mmHg 81%
    07:00 +15°C° 0 mm 1 m/s 747 mmHg 74%
    08:00 +18°C° 0 mm 1 m/s 747 mmHg 67%
    09:00 +19°C° 0 mm 1 m/s 747 mmHg 59%
    10:00 +21°C° 0 mm 1 m/s 747 mmHg 51%
    11:00 +23°C° 0 mm 2 m/s 747 mmHg 44%
    12:00 +23°C° 0 mm 2 m/s 747 mmHg 42%
    13:00 +24°C° 0 mm 2 m/s 746 mmHg 40%
    14:00 +25°C° 0 mm 1 m/s 746 mmHg 39%
    15:00 +25°C° 0 mm 2 m/s 746 mmHg 41%
    16:00 +24°C° 0 mm 2 m/s 746 mmHg 44%
    17:00 +24°C° 0 mm 2 m/s 746 mmHg 47%
    18:00 +21°C° 0 mm 2 m/s 746 mmHg 52%
    19:00 +20°C° 0 mm 2 m/s 746 mmHg 57%
    20:00 +19°C° 0 mm 1 m/s 747 mmHg 63%
    21:00 +19°C° 0.2 mm 1 m/s 747 mmHg 66%
    22:00 +18°C° 0.2 mm 1 m/s 747 mmHg 69%
    23:00 +16°C° 0.2 mm 1 m/s 747 mmHg 73%

    1 Iunie, Luni

    Timp Temperatura Precipitaţii Vânt Presiune Umiditate
    00:00 +15°C° 0.2 mm 1 m/s 748 mmHg 76%
    01:00 +15°C° 0.2 mm 1 m/s 748 mmHg 78%
    02:00 +14°C° 0.2 mm 2 m/s 748 mmHg 81%
    03:00 +14°C° 0.1 mm 2 m/s 748 mmHg 84%
    04:00 +12°C° 0.1 mm 3 m/s 748 mmHg 86%
    05:00 +12°C° 0.1 mm 3 m/s 748 mmHg 89%
    06:00 +13°C° 0 mm 3 m/s 748 mmHg 83%
    07:00 +15°C° 0 mm 4 m/s 748 mmHg 77%
    08:00 +18°C° 0 mm 4 m/s 749 mmHg 72%
    09:00 +19°C° 0.1 mm 4 m/s 749 mmHg 69%
    10:00 +20°C° 0.1 mm 5 m/s 749 mmHg 66%
    11:00 +21°C° 0.1 mm 5 m/s 749 mmHg 63%
    12:00 +21°C° 0.3 mm 5 m/s 749 mmHg 60%
    13:00 +22°C° 0.3 mm 4 m/s 748 mmHg 57%
    14:00 +22°C° 0.3 mm 4 m/s 748 mmHg 54%
    15:00 +22°C° 0.7 mm 4 m/s 748 mmHg 58%
    16:00 +21°C° 0.7 mm 4 m/s 748 mmHg 61%
    17:00 +21°C° 0.7 mm 5 m/s 748 mmHg 64%
    18:00 +19°C° 0.4 mm 4 m/s 748 mmHg 70%
    19:00 +18°C° 0.4 mm 3 m/s 748 mmHg 76%
    20:00 +17°C° 0.4 mm 3 m/s 749 mmHg 82%
    21:00 +16°C° 0.5 mm 3 m/s 749 mmHg 85%
    22:00 +14°C° 0.5 mm 3 m/s 749 mmHg 88%
    23:00 +14°C° 0.5 mm 3 m/s 749 mmHg 90%
    Arată mai mult